Flag for Turkey Weather past 2 weeks in Bursa, Turkey

Now
81 °F

Sunny.


Feels Like: 83 °F
Forecast: 67 / 93 °F
Wind: 2 mph from Northeast

Location: Bursa

Current Time: Aug 4, 2015 at 10:58:08 AM

Latest Report: Aug 4, 2015 at 10:00 AM


Visibility: 9 mi

Pressure: 29.90 "Hg

Humidity: 66%

Dew point: 68 °F

Location of BursaLocation

Historic Weather in Bursa — Graph

°F

Bursa temperature yesterday

Maximum temperature yesterday: 92 °F (at 3:00 PM)
Minimum temperature yesterday: 73 °F (at 6:00 AM)
Average temperature yesterday: 85 °F

Past Weeks' High & Low Weather Summary

 TemperatureHumidityPressure
High101 °F (Jul 29, 4:00 PM)95% (Jul 21, 5:00 AM)30.02 "Hg (Jul 21, 5:00 AM)
Low64 °F (Jul 21, 5:00 AM)26% (Jul 28, 2:00 PM)29.68 "Hg (Jul 27, 7:00 PM)
Average85 °F57%29.83 "Hg
* Reported Jul 20 9:00 AM — Aug 4 9:00 AM, Bursa, Weather by CustomWeather, © 2015

Note: Actual official high and low records may vary slightly from our data, if they occured in-between our weather recording intervals... More about our weather records

Advertising

Bursa weather history for previous 24 hours

 ConditionsComfort  
Time TempWeatherWind HumidityBarometerVisibility
9:00 AM
Tue, Aug 4
78 °FSunny.2 mph70%29.91 "Hg9 mi
6:00 AM70 °FClear.2 mph88%29.91 "Hg9 mi
3:00 AM74 °FClear.5 mph81%29.93 "Hg9 mi
12:00 AM77 °FClear.3 mph74%29.93 "Hg9 mi
9:00 PM
Mon, Aug 3
82 °FClear.9 mph62%29.90 "Hg9 mi
8:00 PM85 °FSunny.10 mph58%29.89 "Hg9 mi
7:00 PM89 °FSunny.12 mph53%29.90 "Hg9 mi
6:00 PM91 °FSunny.10 mph50%29.89 "Hg9 mi
5:00 PM92 °FSunny.14 mph48%29.90 "Hg9 mi
4:00 PM92 °FSunny.12 mph49%29.91 "Hg9 mi
3:00 PM92 °FSunny.10 mph48%29.93 "Hg9 mi
2:00 PM92 °FSunny.9 mph50%29.94 "Hg9 mi
1:00 PM89 °FSunny.5 mph52%29.95 "Hg9 mi
12:00 PM87 °FSunny.3 mph55%29.97 "Hg9 mi
11:00 AM85 °FSunny.5 mph58%29.98 "Hg9 mi
10:00 AM83 °FSunny.7 mph64%29.98 "Hg9 mi
Weather by CustomWeather, © 2015

See weather overviewHow to use our weather pages